| time (UTC) | temp F | wind direction | speed MPH | gust MPH | rain 1hr in | rain 24hr in | rain mn in | humidity % | barometer mb |
| 20260508065205 | 75 | 356 | 1.0 | 2.0 | 0.00 | 0.00 | 0.00 | 77 | 1001.7 |
| 20260508064004 | 73 | 298 | 2.0 | 5.0 | 0.00 | 0.00 | 0.00 | 79 | 1001.6 |
| 20260508062804 | 74 | 39 | 0.0 | 0.0 | 0.00 | 0.00 | 0.00 | 76 | 1001.8 |
| 20260508061604 | 74 | 24 | 1.0 | 2.0 | 0.00 | 0.00 | 0.00 | 77 | 1001.8 |
| 20260508060405 | 73 | 43 | 2.0 | 5.0 | 0.00 | 0.00 | 0.00 | 78 | 1001.9 |
| 20260508055204 | 73 | 21 | 0.0 | 2.0 | 0.00 | 0.00 | 0.00 | 78 | 1002.3 |
| 20260508054005 | 73 | 11 | 5.0 | 6.0 | 0.00 | 0.00 | 0.00 | 78 | 1002.1 |
| 20260508052803 | 73 | 77 | 9.0 | 12.0 | 0.00 | 0.00 | 0.00 | 77 | 1002.3 |
| 20260508051605 | 72 | 10 | 1.0 | 2.0 | 0.00 | 0.00 | 0.00 | 80 | 1002.7 |
| 20260508050403 | 74 | 81 | 1.0 | 2.0 | 0.00 | 0.00 | 0.00 | 78 | 1003.0 |
| 20260508045204 | 72 | 298 | 2.0 | 5.0 | 0.00 | 0.00 | 0.00 | 83 | 1003.1 |
| 20260508044004 | 71 | 97 | 0.0 | 2.0 | 0.00 | 0.00 | 0.00 | 82 | 1003.3 |
| 20260508042803 | 71 | 83 | 3.0 | 5.0 | 0.00 | 0.00 | 0.00 | 83 | 1003.6 |
| 20260508041604 | 72 | 354 | 0.0 | 1.0 | 0.00 | 0.00 | 0.00 | 82 | 1003.7 |
| 20260508040405 | 72 | 26 | 1.0 | 2.0 | 0.00 | 0.00 | 0.00 | 82 | 1003.9 |
| 20260508035204 | 73 | 31 | 2.0 | 3.0 | 0.00 | 0.00 | 0.00 | 81 | 1004.0 |
| 20260508034007 | 72 | 16 | 1.0 | 3.0 | 0.00 | 0.00 | 0.00 | 83 | 1004.2 |
| 20260508032805 | 72 | 29 | 3.0 | 8.0 | 0.00 | 0.00 | 0.00 | 84 | 1004.7 |
| 20260508031604 | 71 | 47 | 6.0 | 9.0 | 0.00 | 0.00 | 0.00 | 85 | 1005.0 |
| 20260508030405 | 71 | 77 | 3.0 | 5.0 | 0.00 | 0.00 | 0.00 | 84 | 1005.3 |
| 20260508025204 | 71 | 22 | 3.0 | 6.0 | 0.00 | 0.00 | 0.00 | 83 | 1005.4 |
| 20260508024004 | 71 | 86 | 5.0 | 7.0 | 0.00 | 0.00 | 0.00 | 83 | 1005.4 |
| 20260508022807 | 71 | 60 | 2.0 | 5.0 | 0.00 | 0.00 | 0.00 | 82 | 1005.7 |
| 20260508021605 | 71 | 19 | 3.0 | 6.0 | 0.00 | 0.00 | 0.00 | 82 | 1005.6 |
| 20260508020404 | 71 | 36 | 2.0 | 3.0 | 0.00 | 0.00 | 0.00 | 83 | 1005.7 |
| 20260508015205 | 70 | 85 | 2.0 | 5.0 | 0.00 | 0.00 | 0.00 | 85 | 1005.8 |
| 20260508014004 | 71 | 39 | 5.0 | 7.0 | 0.00 | 0.00 | 0.00 | 82 | 1005.8 |
| 20260508012805 | 70 | 109 | 2.0 | 3.0 | 0.00 | 0.00 | 0.00 | 81 | 1005.9 |
| 20260508011603 | 69 | 40 | 5.0 | 6.0 | 0.00 | 0.00 | 0.00 | 82 | 1005.8 |
| 20260508010405 | 69 | 22 | 1.0 | 3.0 | 0.00 | 0.00 | 0.00 | 82 | 1005.9 |
| 20260508005208 | 69 | 286 | 2.0 | 2.0 | 0.00 | 0.00 | 0.00 | 83 | 1006.4 |
| 20260508004004 | 68 | 286 | 1.0 | 3.0 | 0.00 | 0.00 | 0.00 | 82 | 1006.5 |
| 20260508002804 | 67 | 285 | 2.0 | 3.0 | 0.00 | 0.00 | 0.00 | 84 | 1006.7 |
| 20260508001605 | 67 | 285 | 1.0 | 3.0 | 0.00 | 0.00 | 0.00 | 84 | 1007.2 |
| 20260508000407 | 67 | 285 | 0.0 | 0.0 | 0.00 | 0.00 | 0.00 | 86 | 1007.4 |
| 20260507235204 | 67 | 282 | 1.0 | 3.0 | 0.00 | 0.00 | 0.00 | 85 | 1007.3 |
| 20260507234008 | 65 | 252 | 0.0 | 1.0 | 0.00 | 0.00 | 0.00 | 86 | 1007.3 |
| 20260507232806 | 64 | 245 | 2.0 | 3.0 | 0.00 | 0.00 | 0.00 | 89 | 1007.2 |
| 20260507231606 | 63 | 259 | 1.0 | 2.0 | 0.00 | 0.00 | 0.00 | 92 | 1007.4 |
| 20260507230406 | 62 | 217 | 1.0 | 2.0 | 0.00 | 0.00 | 0.00 | 96 | 1007.4 |
| 20260507225206 | 61 | 265 | 0.0 | 1.0 | 0.00 | 0.00 | 0.00 | 96 | 1007.2 |
| 20260507224006 | 62 | 264 | 0.0 | 0.0 | 0.00 | 0.00 | 0.00 | 96 | 1007.1 |
| 20260507222809 | 61 | 220 | 2.0 | 2.0 | 0.00 | 0.00 | 0.00 | 96 | 1007.3 |
| 20260507221606 | 61 | 272 | 0.0 | 0.0 | 0.00 | 0.00 | 0.00 | 98 | 1007.4 |
| 20260507220405 | 61 | 273 | 2.0 | 2.0 | 0.00 | 0.00 | 0.00 | 98 | 1007.3 |
| 20260507215206 | 61 | 267 | 1.0 | 2.0 | 0.00 | 0.00 | 0.00 | 96 | 1007.6 |
| 20260507214006 | 61 | 260 | 0.0 | 1.0 | 0.00 | 0.00 | 0.00 | 95 | 1007.6 |
| 20260507212806 | 61 | 218 | 1.0 | 1.0 | 0.00 | 0.00 | 0.00 | 94 | 1007.6 |
| 20260507211605 | 61 | 222 | 1.0 | 2.0 | 0.00 | 0.00 | 0.00 | 95 | 1007.6 |
| 20260507210405 | 60 | 219 | 1.0 | 2.0 | 0.00 | 0.00 | 0.00 | 98 | 1007.2 |
| 20260507205205 | 60 | 284 | 3.0 | 5.0 | 0.00 | 0.00 | 0.00 | 99 | 1007.3 |
| 20260507204006 | 60 | 229 | 2.0 | 2.0 | 0.00 | 0.00 | 0.00 | 99 | 1007.3 |
| 20260507202807 | 60 | 257 | 1.0 | 2.0 | 0.00 | 0.00 | 0.00 | 99 | 1007.3 |
| 20260507201605 | 59 | 257 | 0.0 | 0.0 | 0.00 | 0.00 | 0.00 | 99 | 1007.3 |
| 20260507200405 | 60 | 257 | 1.0 | 2.0 | 0.00 | 0.00 | 0.00 | 99 | 1007.2 |
| 20260507195207 | 60 | 258 | 0.0 | 0.0 | 0.00 | 0.00 | 0.00 | 99 | 1007.3 |
| 20260507194006 | 59 | 258 | 1.0 | 1.0 | 0.00 | 0.00 | 0.00 | 99 | 1007.2 |
| 20260507192809 | 60 | 258 | 0.0 | 0.0 | 0.00 | 0.00 | 0.00 | 99 | 1007.4 |
| 20260507191605 | 60 | 258 | 1.0 | 2.0 | 0.00 | 0.00 | 0.00 | 99 | 1007.2 |
| 20260507190405 | 59 | 258 | 1.0 | 1.0 | 0.00 | 0.00 | 0.00 | 99 | 1007.2 |
| 20260507185207 | 60 | 258 | 1.0 | 2.0 | 0.00 | 0.00 | 0.00 | 99 | 1007.2 |
| 20260507184005 | 60 | 258 | 2.0 | 2.0 | 0.00 | 0.00 | 0.00 | 99 | 1007.2 |
| 20260507182806 | 60 | 258 | 0.0 | 0.0 | 0.00 | 0.00 | 0.00 | 99 | 1007.2 |
| 20260507181606 | 60 | 258 | 1.0 | 2.0 | 0.00 | 0.00 | 0.00 | 99 | 1007.3 |
| 20260507180405 | 60 | 192 | 1.0 | 2.0 | 0.00 | 0.00 | 0.00 | 99 | 1007.4 |
| 20260507175205 | 60 | 178 | 2.0 | 2.0 | 0.00 | 0.00 | 0.00 | 99 | 1007.4 |
| 20260507174005 | 60 | 263 | 2.0 | 2.0 | 0.00 | 0.00 | 0.00 | 99 | 1007.5 |
| 20260507172805 | 60 | 245 | 2.0 | 3.0 | 0.00 | 0.00 | 0.00 | 99 | 1007.6 |
| 20260507171606 | 60 | 242 | 1.0 | 2.0 | 0.00 | 0.00 | 0.00 | 99 | 1007.6 |
| 20260507170404 | 60 | 233 | 1.0 | 1.0 | 0.00 | 0.00 | 0.00 | 99 | 1007.6 |
| 20260507165205 | 60 | 193 | 0.0 | 2.0 | 0.00 | 0.00 | 0.00 | 99 | 1007.7 |
| 20260507164006 | 60 | 256 | 1.0 | 1.0 | 0.00 | 0.00 | 0.00 | 99 | 1007.8 |
| 20260507162807 | 61 | 256 | 0.0 | 1.0 | 0.00 | 0.00 | 0.00 | 99 | 1008.0 |
| 20260507161607 | 61 | 194 | 2.0 | 3.0 | 0.00 | 0.00 | 0.00 | 99 | 1008.0 |
| 20260507160404 | 61 | 156 | 2.0 | 2.0 | 0.00 | 0.00 | 0.00 | 99 | 1007.9 |
| 20260507155206 | 61 | 271 | 1.0 | 1.0 | 0.00 | 0.00 | 0.00 | 99 | 1008.2 |
| 20260507154007 | 62 | 209 | 1.0 | 1.0 | 0.00 | 0.00 | 0.00 | 99 | 1008.4 |
| 20260507152805 | 62 | 278 | 2.0 | 3.0 | 0.00 | 0.00 | 0.00 | 99 | 1008.5 |
| 20260507151604 | 62 | 179 | 2.0 | 2.0 | 0.00 | 0.00 | 0.00 | 99 | 1008.6 |
| 20260507150406 | 62 | 162 | 1.0 | 2.0 | 0.00 | 0.00 | 0.00 | 99 | 1008.8 |
| 20260507145205 | 62 | 258 | 1.0 | 1.0 | 0.00 | 0.00 | 0.00 | 99 | 1008.9 |
| 20260507144005 | 63 | 178 | 2.0 | 3.0 | 0.00 | 0.00 | 0.00 | 99 | 1008.9 |
| 20260507142807 | 63 | 226 | 5.0 | 5.0 | 0.00 | 0.00 | 0.00 | 99 | 1008.8 |
| 20260507141604 | 63 | 261 | 2.0 | 2.0 | 0.00 | 0.00 | 0.00 | 98 | 1008.9 |
| 20260507140404 | 64 | 250 | 1.0 | 1.0 | 0.00 | 0.00 | 0.00 | 97 | 1009.1 |
| 20260507135205 | 64 | 208 | 2.0 | 2.0 | 0.00 | 0.00 | 0.00 | 97 | 1009.2 |
| 20260507134006 | 64 | 309 | 1.0 | 2.0 | 0.00 | 0.00 | 0.00 | 97 | 1009.2 |
| 20260507132806 | 65 | 309 | 0.0 | 0.0 | 0.00 | 0.00 | 0.00 | 95 | 1009.1 |
| 20260507131605 | 65 | 309 | 1.0 | 2.0 | 0.00 | 0.00 | 0.00 | 96 | 1009.4 |
| 20260507130405 | 65 | 258 | 2.0 | 3.0 | 0.00 | 0.00 | 0.00 | 95 | 1009.2 |
| 20260507125206 | 65 | 229 | 1.0 | 2.0 | 0.00 | 0.00 | 0.00 | 94 | 1009.4 |
| 20260507124005 | 65 | 230 | 1.0 | 2.0 | 0.00 | 0.00 | 0.00 | 94 | 1009.3 |
| 20260507122805 | 66 | 290 | 1.0 | 2.0 | 0.00 | 0.00 | 0.00 | 93 | 1009.3 |
| 20260507121605 | 66 | 224 | 2.0 | 2.0 | 0.00 | 0.00 | 0.00 | 93 | 1009.2 |
| 20260507120405 | 66 | 306 | 0.0 | 1.0 | 0.00 | 0.00 | 0.00 | 93 | 1009.5 |
| 20260507115205 | 67 | 306 | 1.0 | 2.0 | 0.00 | 0.00 | 0.00 | 92 | 1009.3 |
| 20260507114006 | 67 | 175 | 1.0 | 2.0 | 0.00 | 0.00 | 0.00 | 92 | 1009.3 |
| 20260507112805 | 67 | 163 | 2.0 | 2.0 | 0.00 | 0.00 | 0.00 | 90 | 1009.3 |
| 20260507111603 | 67 | 227 | 2.0 | 3.0 | 0.00 | 0.00 | 0.00 | 90 | 1009.1 |
| 20260507110407 | 68 | 299 | 2.0 | 2.0 | 0.00 | 0.00 | 0.00 | 89 | 1009.0 |
| 20260507105204 | 68 | 294 | 1.0 | 2.0 | 0.00 | 0.00 | 0.00 | 89 | 1008.9 |
| 20260507104004 | 68 | 226 | 2.0 | 3.0 | 0.00 | 0.00 | 0.00 | 88 | 1009.1 |
| 20260507102806 | 69 | 279 | 2.0 | 2.0 | 0.00 | 0.00 | 0.00 | 88 | 1008.8 |
| 20260507101604 | 69 | 282 | 1.0 | 2.0 | 0.00 | 0.00 | 0.00 | 87 | 1008.8 |
| 20260507100404 | 69 | 225 | 2.0 | 2.0 | 0.00 | 0.00 | 0.00 | 86 | 1008.7 |
| 20260507095204 | 71 | 275 | 0.0 | 2.0 | 0.00 | 0.00 | 0.00 | 85 | 1008.5 |
| 20260507094004 | 71 | 247 | 1.0 | 2.0 | 0.00 | 0.00 | 0.00 | 84 | 1008.4 |
| 20260507092804 | 72 | 318 | 2.0 | 2.0 | 0.00 | 0.00 | 0.00 | 82 | 1008.3 |
| 20260507091608 | 73 | 323 | 0.0 | 0.0 | 0.00 | 0.00 | 0.00 | 78 | 1008.1 |
| 20260507090406 | 74 | 323 | 0.0 | 0.0 | 0.00 | 0.00 | 0.00 | 77 | 1007.8 |
| 20260507085203 | 74 | 349 | 2.0 | 3.0 | 0.00 | 0.00 | 0.00 | 77 | 1007.8 |
| 20260507084005 | 75 | 348 | 2.0 | 3.0 | 0.00 | 0.00 | 0.00 | 76 | 1007.7 |
| 20260507082803 | 75 | 37 | 1.0 | 2.0 | 0.00 | 0.00 | 0.00 | 74 | 1007.5 |
| 20260507081603 | 75 | 19 | 1.0 | 3.0 | 0.00 | 0.00 | 0.00 | 74 | 1007.7 |
| 20260507080406 | 76 | 8 | 2.0 | 6.0 | 0.00 | 0.00 | 0.00 | 72 | 1007.6 |
| 20260507075206 | 76 | 27 | 2.0 | 5.0 | 0.00 | 0.00 | 0.00 | 71 | 1007.8 |
| 20260507074004 | 77 | 40 | 3.0 | 7.0 | 0.00 | 0.00 | 0.00 | 70 | 1007.9 |
| 20260507072805 | 77 | 31 | 5.0 | 7.0 | 0.00 | 0.00 | 0.00 | 70 | 1007.9 |
| 20260507071608 | 77 | 142 | 3.0 | 3.0 | 0.00 | 0.00 | 0.00 | 69 | 1008.0 |
| 20260507070406 | 77 | 116 | 6.0 | 7.0 | 0.00 | 0.00 | 0.00 | 68 | 1008.0 |